This demonstration page uses our WeatherBlox Daily Observations layout. Learn more.

Left ArrowRight Arrow

30.00354, -91.81873

Hourly Observations for October 27, 2019

Temp ( °F °C ) Dew Point ( °F °C ) Humidity (%) Winds ( mph kmh ) Pressure ( in mb ) Visibility ( mi km ) Precip ( " mm )
12:53 am 00:53 Cloudy 58 14.4 54 12.2 87 87 N 3 6 29.96 1014 10 16 0.00 0.00
1:53 am 01:53 Cloudy 58 14.4 55 12.8 90 90 Calm 29.97 1015 10 16 0.00 0.00
2:53 am 02:53 Cloudy 58 14.4 54 12.2 87 87 Calm 29.97 1015 10 16 0.00 0.00
3:53 am 03:53 Cloudy 58 14.4 56 13.3 93 93 Calm 29.98 1015 10 16 0.00 0.00
4:53 am 04:53 Cloudy 58 14.4 54 12.2 87 87 Calm 29.99 1016 10 16 0.00 0.00
5:53 am 05:53 Cloudy 58 14.4 56 13.3 93 93 Calm 29.99 1016 10 16 0.00 0.00
6:53 am 06:53 Cloudy 58 14.4 55 12.8 90 90 Calm 30.00 1016 10 16 0.00 0.00
7:53 am 07:53 Cloudy 58 14.4 56 13.3 93 93 Calm 30.02 1017 10 16 0.00 0.00
8:53 am 08:53 Cloudy 60 15.6 54 12.2 80 80 Calm 30.04 1017 10 16 0.00 0.00
9:53 am 09:53 Cloudy 60 15.6 54 12.2 80 80 VRB 3 6 30.06 1018 10 16 0.00 0.00
10:53 am 10:53 Cloudy 61 16.1 55 12.8 81 81 ENE 6 9 30.06 1018 10 16 0.00 0.00
11:53 am 11:53 Mostly Cloudy 63 17.2 55 12.8 76 76 NE 6 9 30.06 1018 10 16 0.00 0.00
12:53 pm 12:53 Cloudy 64 17.8 56 13.3 75 75 ENE 8 13 30.04 1017 10 16 0.00 0.00
2:53 pm 14:53 Cloudy 65 18.3 57 13.9 76 76 ENE 7 11 30.01 1016 10 16 0.00 0.00
3:53 pm 15:53 Cloudy 64 17.8 57 13.9 78 78 VRB 5 7 30.01 1016 10 16 0.00 0.00
4:53 pm 16:53 Cloudy 63 17.2 57 13.9 81 81 NE 8 13 30.01 1016 10 16 0.00 0.00
5:53 pm 17:53 Cloudy 62 16.7 57 13.9 84 84 ENE 6 9 30.01 1016 10 16 0.00 0.00
6:53 pm 18:53 Partly Cloudy 60 15.6 57 13.9 90 90 NE 5 7 30.01 1016 10 16 0.00 0.00
7:53 pm 19:53 Clear 58 14.4 56 13.3 93 93 N 3 6 30.02 1017 10 16 0.00 0.00
8:53 pm 20:53 Clear 57 13.9 57 13.9 100 100 Calm 30.04 1017 10 16 0.00 0.00
9:53 pm 21:53 Clear 55 12.8 55 12.8 100 100 E 3 6 30.05 1018 8 13 0.00 0.00
10:53 pm 22:53 Clear 55 12.8 55 12.8 100 100 E 5 7 30.05 1018 10 16 0.00 0.00
11:53 pm 23:53 Partly Cloudy 56 13.3 55 12.8 97 97 E 5 7 30.04 1017 10 16 0.00 0.00

Powered by AerisWeather